作者K380 (好车 就该如此 Cheers!)
看板car
标题[情报] 小改款HONDA HR-V车型售价曝光 顶规破百
时间Wed May 28 15:53:16 2025
https://speed.ettoday.net/news/2968389
台湾国产「改款HONDA HR-V」车型售价曝光!顶规突破100万
记者徐煜展/综合报导
来势汹汹的改款HONDA HR-V,本次台湾改款重点为首度新增的全新油电动力,而台湾消费者
关注的售价资讯,已经在财团法人保险事业发展中心抢先流出,其中顶规的油电车型来到10
1.9万。
财团法人保险事业发展中心并非实际上市价格,最终仍以台湾本田原厂公布为主,不过仍具
有一定的价格带范围参考。保发中心流出改款新HONDA HR-V车型与售价,首先仍有过去的1.
5升自然进气汽油款,售价为84.9万。
改款重点的1.5升e:HEV油电共有2款车型曝光,除了有一般的96.9万车型,将作为顶规的Pre
stige车型售价来到101.9万。作为油电HR-V最直接对手的TOYOA Corolla Cross,1.8升油电
Corolla Cross开价83.9~98.9万。
台湾预计6月3日亮相的改款HONDA HR-V,首度采用1.5升e:HEV油电,市区油耗达26.18km/L、
高速22.11km/L、平均油耗为23.5km/L,而平均油耗成绩与1.8升油电的TOYOTA Corolla Cro
ss不相上下。
油电的价格似乎比版友之前预估的高不少啊
要价百万的HR-V…台本有你的
--
※ 发信站: 批踢踢实业坊(ptt.cc), 来自: 101.10.236.39 (台湾)
※ 文章网址: https://webptt.com/cn.aspx?n=bbs/car/M.1748418798.A.76F.html
1F:推 allyourshit: 台苯佛心开价 低於140W都是本田粉的胜利 05/28 15:54
2F:推 gg8n8nd34ss: 顶规有比CC顶规配备好吗 差不多的话大概也是没搞头 05/28 15:55
3F:推 EagleShadow: 竞争力那麽差,CC连加个後地图袋都懒了 05/28 15:56
4F:推 hiyeon: 真好奇喜欢本田的人在想啥 要安全没安全 要价格没价格 能 05/28 15:57
5F:→ hiyeon: 吹的只有客货认证的空间 05/28 15:57
6F:推 freetempo: 後面防撞梁装回来了吗 05/28 15:58
7F:→ bbogod: 盘子魂该上罗 05/28 15:58
8F:推 BrandonMai: 没事没事 多了民主价值而已 05/28 15:59
9F:推 allyourshit: 要後防撞梁请再加五万 05/28 16:00
10F:推 charmingpink: 破百hrv 05/28 16:01
11F:→ allyourshit: 84.9万应该是接单生产 候车期3-6个月吧 05/28 16:02
12F:推 san06182003: 百万yc 05/28 16:02
13F:推 jackie0712: 这次要折多少呢 先折个10先 05/28 16:03
14F:推 omanorboyo: 可以下去了 05/28 16:03
15F:推 kobe7610: 台苯真的把台湾人当盘子耶 05/28 16:04
16F:推 crazypitch: 本田第一年都很硬 应该没折10 12月跨年度看看能不能 05/28 16:05
17F:推 n7593111: 101.9万会有含盲点环景吗?後防撞钢梁和全速域车维会补 05/28 16:05
18F:→ n7593111: 上吗?敬请期待 05/28 16:05
19F:推 cliff880528: 有100万干嘛不买CC正油电== 05/28 16:07
20F:→ geniusw: 宗教跟买车不一样啊 你们在争啥 05/28 16:07
21F:嘘 acesslai: 哪里来的弯道超车,哪里来的改变购车习惯 05/28 16:08
22F:→ ckfh101: 折价20万才有竞争力 05/28 16:08
23F:推 a187: CC: 看来拔太少... 05/28 16:09
24F:推 PCC2003: 买到撞到 05/28 16:11
25F:推 kukuo413117: CC:路边一条 05/28 16:12
26F:嘘 SaberMyWifi: 不想经营台湾市场就滚回日本 05/28 16:12
27F:推 alcloth: 原来前几天流出的价格是旧换新再-5万的价格 05/28 16:14
28F:→ alcloth: 我听到的油电两款是89.9、95.9 05/28 16:14
29F:→ alcloth: 所以正式销售的定价会再各减1万 05/28 16:15
30F:→ jarrodqq896: 哈哈哈哈哈 05/28 16:16
31F:推 alcloth: 这样油电入门加上折扣办到好就是90 05/28 16:16
32F:推 windblood: 本田粉被台苯看没有 不赚白不赚 05/28 16:17
33F:推 flymomo2001: 哈哈哈,果然割割割 05/28 16:18
34F:推 hsiung9: 才101万 看不起本田魂吗 05/28 16:20
35F:推 eric20: 100买国产CUV? 05/28 16:21
36F:推 mercedeces: 这车後座跟fit一样是溃缩区 05/28 16:23
37F:推 n7593111: 为什麽要花101.9万买一台四星撞测车? 05/28 16:23
38F:推 beoneg: 才破百是不是瞧不起本田魂? 05/28 16:26
39F:推 lightmei: 140的喜美原来是在帮後续e:hev铺路阿,我真以为成本有 05/28 16:33
40F:→ lightmei: 多高 05/28 16:33
41F:→ dslite: 配备比cc好的话应该还可以? 05/28 16:33
42F:推 omanorboyo: 车头有够丑 被CC压在地上打 05/28 16:34
43F:→ lightmei: 配备应该不会多好,本田最厉害的就是拔一堆配备起来当 05/28 16:34
44F:→ lightmei: 加购的 05/28 16:34
45F:推 kkrichard: CC表示:干,早知道再开高一点 05/28 16:37
46F:推 LoveLena5566: 不然要买牛头? 05/28 16:39
47F:→ terry955048: 都打不赢CC了还卖比人贵,台苯很猛 05/28 16:40
48F:推 wiki0029: 台苯是不是看台湾本田魂没有,没超过150 05/28 16:41
49F:推 kimiso: 本田都敢开这价格CC完全被看不起了 05/28 16:44
50F:推 pigforget: Show味十足吗? 05/28 16:45
51F:推 davidtoldyou: 可参考HRV油车,台苯眼中所谓的顶规盲点环景照样拔 05/28 16:46
52F:推 OldWang911: 不然要买丰田火烧车吗? 05/28 16:47
53F:推 grizzly: Civic cp值突然变高了 05/28 16:48
54F:推 romeo84: 不意外。不要买就好 05/28 16:49
55F:推 davidtoldyou: 捏20就有进口喜美,是我也选civic,帅多了 05/28 16:50
56F:推 snailking: CC准备下神坛了,不要不信 05/28 16:51
57F:推 bba75149: 夯打从不让台湾人失望 果然开出鸟价格 05/28 16:52
58F:推 Boss1983: 有vtec啊 05/28 16:53
59F:→ snailking: HR-V就是一台连丰田章男都会开的车,国瑞CC到底算老几 05/28 16:54
60F:→ dododododora: 和泰笑到内裤破掉 05/28 16:55
61F:推 gene51604: 国产的还要破百喔? 05/28 16:55
62F:推 timewaits: 宁愿火烧车穿雨衣都不要移动铁棺材 05/28 16:55
63F:→ timewaits: 台本只有CRV6跟Civic可以买 05/28 16:56
64F:推 keineAhnung: 百万铝锈连 05/28 16:56
65F:推 eric19850629: 国产(X 台组(O 05/28 16:58
66F:→ timewaits: (本粉:正在蒐集火烧车图片) 05/28 16:59
67F:推 Semaj543: 油电入门96.9,我只能说加油 05/28 16:59
68F:推 Alun021: 有100万买别的车啊,干嘛买CC HRV…. 05/28 17:00
69F:嘘 l90289312: 油电96万,这是要被变浆糊吧 05/28 17:00
70F:推 ymx3xc: 这价格有含盲点吗? 05/28 17:01
71F:推 Hotsheep: 百万…留点钱给本粉买黄油好吗 05/28 17:05
72F:嘘 neil0611: 锈time? 05/28 17:06
73F:推 cy7872322: 4星show车 05/28 17:07
74F:嘘 johnson20524: 本田魂飞魄散 05/28 17:13
75F:推 kenny771011: 和泰赢麻了 05/28 17:17
76F:推 maplefoxs: 不意外,原本就要80几了 05/28 17:21
77F:→ lancelot123: 保发中心不见得准,看看那个Passat,跟上市售价差有 05/28 17:21
78F:→ lancelot123: 够多 05/28 17:21
79F:推 ckfh101: 木法沙出来 CC就在挖鼻孔了 HRV HEV这个价格 CC挖到流鼻 05/28 17:21
80F:→ ckfh101: 血 05/28 17:22
81F:推 supermni: 最终应该会落在93.9~99.9万略低百万CC(影音特仕 05/28 17:24
82F:嘘 cor1os: 锈 真锈 05/28 17:24
83F:推 bing6715: 悲惨内装 05/28 17:24
84F:推 weijinsusu: 100万就买得到本田魂超值 05/28 17:25
85F:推 frogqoo: 苔苯去卖给鬼吧…..破百 05/28 17:26
86F:推 horb: 你不买。他不买。明天折十万。台本还是要抵制一下才会回归正 05/28 17:29
87F:→ horb: 常价 05/28 17:29
88F:推 jerryyangyyx: 差不多价格的全时电驱5星进口KICKS e-power不香吗? 05/28 17:30
89F:→ horb: 现在CRV折蛮多的 05/28 17:30
90F:推 superpie007: 有後防撞钢梁套件吗 05/28 17:32
91F:→ pzztt: 内含本田魂价值 价格高一点错了吗 05/28 17:37
92F:推 yuen0000: 油电的还会锈吗 05/28 17:38
93F:推 iceking: 猜正式售价降2万 99.9压百万内 05/28 17:41
94F:推 can05025: 台苯真的佛心,快谢主荣恩~~ 05/28 17:43
95F:推 smallkop: 北烂,cc油电一统江湖 05/28 17:45
96F:→ smallkop: 本田翔救我 05/28 17:46
97F:推 orange7986: 之前一篇文大家还在幻想顶规95 QQ 05/28 17:49
98F:推 ru04hj4: 好啦 不嘴了本田No.1 05/28 17:50
99F:→ ALDNOAH5566: CC屌打 05/28 17:51
100F:嘘 triff: 看了真难过,买台本都被酸,我真的爱本田的车 05/28 17:58
101F:→ triff: City开9年了,妥善率超好,保养也简单,上班买菜生活好车, 05/28 17:59
102F:→ triff: 台本啊..不要这样漏气啦 05/28 17:59
103F:推 david7112123: 台本不意外 05/28 17:59
104F:推 ga654154: 生锈笨田魂开始冲罗 05/28 18:02
105F:推 allyourshit: 台湾就流放之地 台苯那些都是职场失败者才会来的 05/28 18:03
106F:嘘 swatsh: 哈哈哈 不是有人说要一桶江湖了 05/28 18:03
107F:推 pttsuck5566: 买到撞到 05/28 18:06
108F:推 g0428168: 一桶糨糊 05/28 18:10
109F:推 aa01081008tw: CC油电80万就有了...差了快20万..多花20万买信仰喔 05/28 18:10
110F:推 y7moremore: 跟cc油电尊爵比 排气量-3万 测撞-3万 锈锈-4万 这台该 05/28 18:15
111F:→ y7moremore: 卖80万以下 05/28 18:15
112F:推 OldWang911: @jerryy 现煮时不可能买kicks,国外早就大改款了,要 05/28 18:17
113F:→ OldWang911: 也是买大改款 05/28 18:17
114F:推 falconer: 之前好几家车媒不是说会在百万以内 05/28 18:18
115F:推 seamask: 本田折扣过後还有90?90贵现在cc也要价十万吧? 05/28 18:20
116F:推 WiLLSTW: 等下又有人要来贴CC烧头灯了 05/28 18:21
117F:嘘 gameboy163: 百万买这个还宁愿买N7 05/28 18:22
118F:推 morrishh: 都百万了 应该不会生锈了吧? 05/28 18:26
119F:推 mictaner0972: 本田玩法 先开高价割第一波韭菜 再大折价 让人以为 05/28 18:28
120F:→ mictaner0972: 赚到 05/28 18:28
121F:推 hank9527: 本粉911好生气 05/28 18:30
122F:推 Statham: 可惜以前喜美K8黄金年代 现在只剩情怀跟锈锈 05/28 18:33
123F:推 Merucho: 跟MG比吧 拿Cc来比有点杀鸡焉用牛刀 05/28 18:34
124F:推 OldWang911: 9527还在狂喝CC的漏水吧 05/28 18:38
125F:推 s88001238: 佛盘 05/28 18:41
126F:推 JER2725: 国产百万cuv 05/28 18:48
127F:推 hg32658: 顶到底的cc也没破百 这些人到底哪里来的自信订这种价格 05/28 18:55
128F:推 finasoul: 有啦 GR cc牌价98.9+5选配有破百 但空车93 05/28 18:56
129F:推 foxbrush: 本田台湾定价策略一直走品牌地位高Toyota一等,本质溢价 05/28 19:00
130F:→ laechan: 这价钱难怪我选CC 05/28 19:03
131F:→ apov: 防撞钢梁照偷 一样卖破百 05/28 19:03
132F:推 MilkTeaMan: cc加本田logo就是定价 05/28 19:04
133F:推 atana: 本田的灵压都快消失了 05/28 19:11
134F:→ RiverMan1: 我就看不懂台本这样垃圾,还一堆死忠 05/28 19:18
135F:推 curry0402: 高於90根本没胜算 买到撞到 05/28 19:23
136F:推 indoman: 年底大概折12左右跟fit一样 05/28 19:27
137F:→ Feriohan: Fit油电之前看过70的菜单,供参 05/28 19:27
138F:推 Civil: 0 05/28 19:38
139F:推 kai0829: CC: 哈欠 05/28 19:38
140F:推 wheat1130: 优锈 05/28 19:41
141F:→ wheat1130: 内铁这次有装了吧? 05/28 19:42
142F:推 foxvera: 差不多...之前KICKS也是这个壕价 05/28 19:44
143F:推 wjes30325: 买CC油电再买一台进口本田小狼 这样依然有本田魂惹 05/28 19:45
144F:→ foxvera: 不过还是一样,"卖得差的话",他就会降价 05/28 19:46
145F:推 finasoul: 之前汽油滞销不就都折10起跳 05/28 20:04
146F:推 sakaya00: 内线龟车款 油电能救救它吗 05/28 20:24
147F:推 godallan: 往好处想 台本其实会看舆论动价格 HRV有他一定的市场 就 05/28 20:24
148F:→ godallan: 是不开cc那群 05/28 20:24
149F:推 AirLee: 买到撞到 快点去买 05/28 20:29
150F:推 bruceiq: 感觉是本田会做的事,看Fit就懂了 05/28 20:31
151F:推 ur83friend: ㄒㄧㄡˋ 05/28 20:36
152F:推 bravery1117: 这价格,买CC比较好。 05/28 20:53
153F:嘘 a1684114: 这麽贵 买回来发现什麽都拔 外加生锈 05/28 20:54
154F:推 E6300: CC油电尊爵+HONDA CL-STREET=刚好这台的价格 05/28 21:04
156F:→ OldWang911: 国外试驾,有兴趣的人可以看看(英语) 05/28 21:24
158F:→ OldWang911: 静态赏车 05/28 21:26
159F:推 AustinRivers: cc笑翻 05/28 21:39
160F:推 metroid0104: 这几年没台苯这样坑苯醚,本田获利应该更难看 05/28 21:48
161F:推 Mbappe10: 坐等折价20 05/28 21:50
162F:推 silence569: 盘田总是不会让人失望 05/28 21:53
163F:→ SCYAzure: 差不多吧,比CC好开干嘛卖的比CC便宜XD 05/28 22:01
164F:推 love9: 卖不掉加价卖 聪明 05/28 22:06
165F:推 lovelock110: 买家佛 05/28 22:11
166F:推 line20306: 真的被当北七 05/28 22:20
167F:推 zx2751206: 价格出来,板上几位本田特铁粉该下订支持罗,不要在那 05/28 22:23
168F:→ zx2751206: 哈拉一大堆,结果自己还不买~啃^_^ 05/28 22:23
169F:推 celelor: 猛 这车顶多值90万 超过100是什麽意思 05/28 22:24
170F:推 mtc5566: 笑死 911到底是本质迷还是本黑反串阿 05/28 22:27
171F:推 kofpp: 开那种价格,真的是买来给人笑的 05/28 22:34
172F:嘘 a894392000: 台本真的是有够贪 05/28 22:39
173F:推 OldWang911: 路过,这里好热闹呢~ 05/28 22:43
174F:嘘 jazzprozac: 先等正式公布再说 不过我是不期待台本的定价策略啦 05/28 22:43
175F:推 gino321: 台笨的售价 没让我失望过 05/28 23:13
176F:推 okla0327: 本田屏东的产能本来就有限,想卖多大量都很难吧? 05/28 23:16
177F:推 godallan: CC顶有破百 但本田也不是原价卖你 05/28 23:27
178F:推 yoyoboy1: 保发中心的价格通常都会比较高啦,看上个月的Passat 正 05/28 23:31
179F:→ yoyoboy1: 式售价比保发中心低了30几万。 所以价格看看就好。抹布0 05/28 23:31
180F:→ yoyoboy1: 1都有人透漏了。顶级款是95.9万 05/28 23:32
181F:推 kentin: It’s 锈 time 05/28 23:42
183F:嘘 h921440: 日本同款车卖60万台币,台湾国产要破百万? 05/29 00:48
184F:推 h921440: 屏东厂劳工薪水、加班费 > 日本劳工 05/29 00:56
185F:推 OldWang911: 看楼上自问自答还蛮妙的 haha 05/29 01:05
186F:推 EPIRB406: 100万可以配备给足就好 05/29 01:21
187F:嘘 astrofluket6: CC表示 05/29 01:24
188F:推 SamWhite: 锈time 05/29 01:42
189F:推 yummy5309: 这价格还算国产车吗? 05/29 02:13
190F:推 OldWang911: 都有人买到百万CC了,国产怎麽不可能 05/29 02:20
191F:推 interact: CC笑到内伤 05/29 03:41
193F:→ cosmos506: 太便宜我,可是不买 05/29 06:06
194F:推 jansan: 会不会生锈? 05/29 06:42
195F:推 iorittn: 有100怎麽不买RAV4? 05/29 07:16
196F:→ Betterdays: 笑死 下去啦 05/29 07:40
197F:→ soleaching: HRV跟fit卖点就是那个椅子变化 05/29 07:44
198F:嘘 Xxxxxin: 大一点的油电fit,後座一样不能载人吗? 05/29 07:45
199F:→ asdf70044: 反正本来就卖不多 价格高点卖死忠H魂 加减赚 05/29 08:18
200F:推 xjapan329: HR-V晋身为百万豪车品牌 05/29 08:42
201F:推 oldling: 不如买n7 05/29 08:51
202F:推 ttt1387: 80万的CC油电尊爵、真香 05/29 08:57
203F:→ a9564208: 不意外 05/29 08:58
204F:推 nonono119: 正式价格都还没公布大家骂的跟真的一样 05/29 09:02
205F:→ a9564208: 买CC+CL,还可以去参加台本车聚 05/29 09:02
206F:推 joe48246: 裕隆透露年底会发表大改款kicks ep,不急的话可以等到 05/29 09:10
207F:→ joe48246: 时候与hrv比较价格,且据说3代ep油耗和成本都下降,有 05/29 09:11
208F:→ joe48246: 望压低车价 05/29 09:12
209F:推 cosmos506: 我ok 你先买 05/29 09:22
210F:推 csgod1325: 难怪以前不敢进油电 05/29 09:43
211F:推 jerrylee666: 百万锈锈车+1 05/29 09:56
212F:→ SCYAzure: 我很怀疑台湾年底会进新款kicks EP,理论上会慢国外一 05/29 10:11
213F:→ SCYAzure: 年,现在国外新版kicks EP都还没上市啊 05/29 10:11
214F:推 allenz78: 本田魂燃烧 05/29 10:18
215F:推 Dick2: 锈到不敢买 05/29 11:18
216F:推 Omgggyy778: 魂力满点、价格满点 05/29 11:50
217F:推 stockton19: 期待开箱後保杆.... 05/29 12:08
218F:推 Celtic8879: cc又赢 05/29 12:13
219F:推 q840813: 进口车都要0关税了 这台还在卖100万 好猛 05/29 12:46
220F:嘘 doomerptt: 抬畚就是拒买啦 05/29 13:54
221F:→ tirio312: 这价格…. 05/29 14:07
222F:推 OldWang911: 我只想知道大改款的kicks方向盘到底有没有补上四向调 05/29 14:41
223F:→ OldWang911: 整了 05/29 14:41
224F:→ OldWang911: 国内现行款kick方向盘只有两向调整,看到傻眼 05/29 14:42
225F:推 preisner: 本田不ey 05/29 16:06
226F:推 camry10527: 开在hrv後面看有够丑 05/29 16:43
227F:→ z5876268: 破百的价格已经是确定了吗,後面说不定会再降一点,这个 05/29 16:46
228F:→ z5876268: 价格真的是很顶规,不知道内装跟配备有没有这麽顶 05/29 16:47
229F:推 wujunda: 哈哈哈 05/29 18:27
230F:推 jerryyangyyx: 回楼上的,e-POWER的kicks方向盘是四向哦 05/29 18:47
231F:推 tw88: 推 国产Macan 05/29 20:14
232F:→ kyo33: 零关税特斯拉都快进来了本田还敢卖这价喔 笑死人 05/30 12:10
233F:推 KSUGOD: showtime 05/30 12:52
234F:推 shengkao: 前几天才在一篇文下推说不用期待本田会开出什麽好价格, 05/30 20:54
235F:→ shengkao: 果然... 05/30 20:54
236F:→ lauoosai: 死忠本田粉觉得便宜 05/31 22:16
237F:推 wheat1130: 准车主:黄油准备好了。 06/02 00:57
238F:推 Feriohan: 5月销售cc 3,000台,hrv 130台,这是要比什麽 XDD 06/02 17:51
239F:嘘 dodoro1: 贵 06/08 15:44